THORAD AGENA D DEB

Satellite information

Favourite Embed

Satellite Type and Status

DEBRISIN ORBIT

Key statistics

Satellite THORAD AGENA D DEB at a glance.

Uptime

20529

Days in orbit

Revolutions

≈ 14.5

Per day

Orbit

LEO

Low Earth Orbit

Inclination

69.9

Latest

Satellite identification and parameters

Extended collection of information and parameters for THORAD AGENA D DEB.

Object identification

Identified? True

Debris? True

Object name: THORAD AGENA D DEB

International designator: 1969-082JP

Object number (NORAD): 5755

Object ID (CCSDS): 5755

Country: UNITED STATES OF AMERICA (US)

Current information (Y/N): Y

RCS size: SMALL

Orbital parameters

Period: 99.439 minutes

Inclination: 69.9279 deg

SMA: 7109.905 km

Apoapsis: 740.143 km

Periapsis: 723.397 km

RAAN: 8.2015 deg

Eccentricy: 0.0011776

Argument of periapsis: 286.7326 deg

Mean anomaly: 73.2514 deg

Mean motion: 14.48128361 rev/day

Mean motion (dot): 0.00004601 rev/day2

B* drag term: 0.0012488974 1/REarth

Two-line elements (TLE)

Creation date: Dec. 14, 2025, 3:07 a.m.

Reference frame: TEME

Reference center: EARTH

Epoch: Dec. 13, 2025, 11:30 a.m. UTC

TLE line 0: 0 THORAD AGENA D DEB

TLE line 1: 1 05755U 69082JP 25347.47953527 .00004601 00000-0 12489-2 0 9997

TLE line 2: 2 05755 69.9279 8.2015 0011776 286.7326 73.2514 14.48128361907789

Live tracking on map

Real-time ground track for satellite THORAD AGENA D DEB.

In-orbit conjunctions

A list of the most updated potential collisions computed for object THORAD AGENA D DEB.

Target Orbit TCA Probability of collision Miss distance Type
FENGYUN 1C DEB SSO 2025-05-24 23:52:54 0.0002371374 39.0 (m) DEBRIS
FENGYUN 1C DEB SSO 2024-12-10 07:03:21 0.0001193148 100.0 (m) DEBRIS
IRIDIUM 33 DEB LEO 2024-11-15 01:35:05 0.0001458506 656.0 (m) DEBRIS

Associated space launch

Poppy was the follow-on ELINT system, which succeeded the Grab ELINT satellite system.

THORAD AGENA D DEB was lifted into orbit during the mission ‘Thorad SLV-2G Agena D | Poppy 8A,B,C,D’, on board a Thorad SLV-2G Agena D space rocket.

The launch took place on Sept. 30, 1969, 1:40 p.m. from Space Launch Complex 1W.

For more information about the launch, click the button.

Launch to space Thorad SLV-2G Agena D | Poppy 8A,B,C,D
Thorad SLV-2G Agena D | Poppy 8A,B,C,D

Agency: N/A

Status: Launch Successful

Launch date: Sept. 30, 1969, 1:40 p.m. UTC

Rocket: Thorad SLV-2G Agena D

Launch pad: Space Launch Complex 1W

Location: Vandenberg SFB, CA, USA

...

Latest news about this satellite

There are no fresh news available about this satellite. Check back as we update our databases every day.


Newsletter sign-up

Weekly statistics, charts and insights to help you stay on top of the space industry.